Regional Weather Roundup
Issued by NWS

Home | Current Version | Previous Version | Text Only | Print | Product List | Glossary On
Versions: 1 2 3 4 5 6 7 8 9 10 11 12 13 14 15 16 17 18 19 20 21 22 23 24 25 26 27 28 29 30 31 32 33 34 35 36 37 38 39 40 41 42 43 44 45 46 47 48 49 50
000
ASUS42 KKEY 070710
RWRKEY

FLORIDA REGIONAL WEATHER ROUNDUP FOR THE FLORIDA KEYS
NATIONAL WEATHER SERVICE KEY WEST FLORIDA
200 AM EST SUN FEB 07 2016

...SOUTH FLORIDA AND THE KEYS...

CITY           SKY/WX    TMP DP  RH WIND       PRES   REMARKS
FORT MYERS     PTCLDY    54  50  86 NW17      30.01F
SW REGIONAL AP MOCLDY    54  49  83 N10       30.02F
NAPLES         CLOUDY    57  52  83 NW12G21   30.02F
MIAMI          CLOUDY    59  54  83 W14G21    29.97F
WEST KENDALL   MOCLDY    58  56  93 NW17      29.99S
HOMESTEAD      CLOUDY    59  55  88 NW16G23   29.96F
MARATHON       CLOUDY    63  58  83 NW13G25   30.01F
BOCA CHICA NAS CLOUDY    64  58  80 N17       30.03S
KEY WEST INTL  CLOUDY    65  60  84 NW13G21   30.03F

...INTERNATIONAL WEATHER...

CITY           SKY/WX    TMP DP  RH WIND       PRES   REMARKS
NASSAU BAHAMAS NOT AVBL
CANCUN MEXICO  CLOUDY    66  63  88 NW5       30.14F
COZUMEL MEXICO MOCLDY    66  59  77 NW21      30.14F

ADJACENT COASTAL WATERS...

STATION/POSITION TIME  SKY/WX   TEMP    WIND        PRES    WAVE
                                AIR SEA DIR/SP/G            HT/PER
                 (UTC)          (F)     (DEG/KT/KT) (MB)    (FT/S)
PULASKI SHOAL LI 0600                                 N/A
SAND KEY         0650            65     350/ 19/ 23 1017.0F
SOMBRERO KEY     NOT AVBL
LONG KEY         0600            64 70  340/ 20/ 23 1016.7F
MOLASSES REEF    0700            62 76  310/ 23/ 25 1014.6F
FOWEY ROCKS      NOT AVBL

$$



USA.gov is the U.S. government's official web portal to all federal, state and local government web resources and services.